Tracking 18647 objects as of 28-May-2017
HD Live streaming from Space Station
objects crossing your sky now

YAMAL 202

Track YAMAL 202 now!
YAMAL 202 is classified as:


NORAD ID: 28089
Int'l Code: 2003-053A
Perigee: 35,780.1 km
Apogee: 35,807.8 km
Inclination: 0.1 °
Period: 1,436.1 minutes
Semi major axis: 42164 km
RCS: 0.003 m2 (small)
Launch date: November 24, 2003
Source: Commonwealth of Independent States (former USSR) (CIS)
Launch site: TYURATAM MISSILE AND SPACE COMPLEX (TTMTR)

18 C-band; provide communications for gas corporation operations throughout Eurasian continent.
Your satellite tracking list
Your tracking list is empty





NASA's NSSDC Master Catalog

Two Line Element Set (TLE):
1 28089U 03053A   17147.60309354 +.00000107 +00000-0 +00000-0 0  9996
2 28089 000.0564 112.5022 0003295 295.2127 103.6921 01.00271051049512
Source of the keplerian elements: AFSPC